EW0380 Weather Reports


Display with metric or nautical units.
time (UTC)temp
F
wind
direction
speed
MPH
gust
MPH
rain 1hr
in
rain 24hr
in
rain mn
in
humidity
%
barometer
mb
20260903043920 76 102 0.0 2.0 0.00 0.04 0.00 87 1014.4
20260903042919 75 0.0 0.0 0.00 0.04 0.00 88 1014.3
20260903041919 75 0.0 0.0 0.00 0.04 0.00 86 1014.7
20260903040920 75 149 2.0 2.0 0.00 0.04 0.00 88 1014.3
20260903035940 75 0.0 0.0 0.00 0.04 0.04 87 1013.6
20260903034920 75 120 1.0 2.0 0.00 0.04 0.04 87 1013.3
20260903033920 76 138 1.0 2.0 0.00 0.04 0.04 86 1013.9
20260903032919 76 171 3.0 4.0 0.00 0.04 0.04 85 1013.6
20260903031919 76 113 2.0 4.0 0.00 0.04 0.04 85 1013.6
20260903030919 77 123 1.0 2.0 0.00 0.04 0.04 83 1014.0
20260903025920 77 149 4.0 5.0 0.00 0.04 0.04 86 1014.3
20260903024940 78 162 3.0 4.0 0.00 0.04 0.04 84 1014.6
20260903023920 78 60 2.0 2.0 0.00 0.04 0.04 81 1014.7
20260903022919 78 21 3.0 5.0 0.00 0.04 0.04 79 1015.2
20260903021920 78 0.0 0.0 0.00 0.04 0.04 82 1014.6
20260903020932 78 0.0 0.0 0.00 0.04 0.04 83 1014.6
20260903015919 78 0.0 0.0 0.00 0.04 0.04 80 1014.5
20260903014920 79 164 1.0 2.0 0.00 0.04 0.04 78 1014.6
20260903013920 79 155 3.0 5.0 0.00 0.04 0.04 77 1013.9
20260903012920 80 207 2.0 2.0 0.00 0.04 0.04 77 1014.1
20260903011920 79 162 4.0 6.0 0.00 0.04 0.04 78 1014.1
20260903010919 79 143 2.0 4.0 0.00 0.04 0.04 79 1014.5
20260903005920 78 195 1.0 2.0 0.00 0.04 0.04 80 1014.1
20260903004919 79 123 2.0 4.0 0.00 0.04 0.04 78 1014.5
20260903003941 79 143 1.0 2.0 0.00 0.04 0.04 78 1013.8
20260903002920 80 0.0 0.0 0.00 0.04 0.04 78 1014.2
20260903001920 81 0.0 0.0 0.00 0.04 0.04 77 1014.2
20260903000919 82 0.0 0.0 0.00 0.04 0.04 77 1014.3
20260902235939 83 0.0 0.0 0.00 0.04 0.04 75 1014.3
20260902234919 84 0.0 0.0 0.00 0.04 0.04 74 1014.3
20260902233920 85 178 1.0 2.0 0.00 0.04 0.04 72 1014.0
20260902232920 86 158 4.0 9.0 0.00 0.04 0.04 71 1014.0
20260902231920 87 146 4.0 5.0 0.00 0.04 0.04 73 1014.1
20260902230920 88 163 1.0 2.0 0.00 0.04 0.04 73 1014.5
20260902225919 88 253 1.0 2.0 0.00 0.04 0.04 66 1014.1
20260902224920 86 201 1.0 2.0 0.00 0.04 0.04 67 1014.0
20260902223920 87 0.0 0.0 0.00 0.04 0.04 65 1014.4
20260902222920 88 0.0 0.0 0.00 0.04 0.04 64 1014.4
20260902221920 88 255 0.0 2.0 0.00 0.04 0.04 60 1014.4
20260902220920 91 219 1.0 2.0 0.00 0.04 0.04 57 1014.1
20260902215920 92 0.0 0.0 0.00 0.04 0.04 58 1014.5
20260902214920 91 280 2.0 4.0 0.00 0.04 0.04 55 1014.1
20260902213920 91 256 1.0 2.0 0.00 0.04 0.04 54 1014.1
20260902212920 91 229 2.0 3.0 0.00 0.04 0.04 54 1014.1
20260902211920 90 228 0.0 2.0 0.00 0.04 0.04 55 1014.4
20260902210940 90 270 5.0 7.0 0.00 0.04 0.04 56 1014.1
20260902205932 91 272 5.0 9.0 0.00 0.04 0.04 53 1014.4
20260902204940 90 279 7.0 9.0 0.00 0.04 0.04 54 1014.4
20260902203920 90 271 5.0 7.0 0.00 0.04 0.04 53 1014.7
20260902202920 91 279 6.0 7.0 0.00 0.04 0.04 56 1014.8
20260902201921 91 289 7.0 9.0 0.00 0.04 0.04 53 1014.7
20260902200920 91 274 7.0 8.0 0.00 0.04 0.04 55 1015.1
20260902195920 92 285 4.0 7.0 0.00 0.04 0.04 55 1015.1
20260902194920 92 220 4.0 7.0 0.00 0.04 0.04 52 1015.1
20260902193920 94 202 4.0 5.0 0.00 0.04 0.04 53 1015.5
20260902192920 93 238 4.0 5.0 0.00 0.04 0.04 52 1015.5
20260902191920 93 265 2.0 5.0 0.00 0.04 0.04 56 1015.5
20260902190920 92 195 1.0 5.0 0.00 0.04 0.04 58 1015.8
20260902185920 92 262 4.0 7.0 0.00 0.04 0.04 59 1015.5
20260902184919 93 239 1.0 2.0 0.00 0.04 0.04 59 1015.6
20260902183920 92 252 5.0 7.0 0.00 0.04 0.04 60 1015.5
20260902182920 92 253 2.0 2.0 0.00 0.04 0.04 60 1015.8
20260902181921 91 259 4.0 6.0 0.00 0.04 0.04 64 1015.9
20260902180919 91 236 3.0 5.0 0.00 0.04 0.04 62 1016.2
20260902175920 90 237 4.0 6.0 0.00 0.04 0.04 65 1015.9
20260902174920 90 261 5.0 6.0 0.00 0.04 0.04 68 1016.5
20260902173920 89 241 3.0 6.0 0.00 0.04 0.04 70 1016.8
20260902172920 89 207 2.0 3.0 0.00 0.04 0.04 72 1016.5
20260902171920 89 253 4.0 6.0 0.00 0.04 0.04 72 1016.5
20260902170920 89 270 3.0 6.0 0.00 0.04 0.04 74 1016.8
20260902165920 88 255 2.0 2.0 0.00 0.04 0.04 78 1016.8
20260902164920 88 177 5.0 7.0 0.00 0.04 0.04 74 1016.8
20260902163920 87 212 1.0 2.0 0.00 0.04 0.04 77 1016.8
20260902162920 87 180 5.0 6.0 0.00 0.04 0.04 76 1016.8
20260902161920 86 208 3.0 7.0 0.00 0.04 0.04 78 1016.8
20260902160920 85 193 3.0 6.0 0.00 0.04 0.04 78 1016.7
20260902155920 85 210 4.0 5.0 0.00 0.04 0.04 82 1017.1
20260902154920 84 184 3.0 5.0 0.00 0.04 0.04 80 1017.4
20260902153920 84 173 5.0 8.0 0.00 0.04 0.04 80 1017.4
20260902152920 84 186 3.0 6.0 0.00 0.04 0.04 82 1017.4
20260902151920 83 174 3.0 5.0 0.00 0.04 0.04 82 1017.4
20260902150920 83 160 3.0 5.0 0.00 0.04 0.04 82 1017.3
20260902145920 83 153 5.0 6.0 0.00 0.04 0.04 83 1017.0
20260902144920 82 168 3.0 5.0 0.00 0.04 0.04 86 1017.0
20260902143940 82 149 2.0 2.0 0.00 0.04 0.04 85 1017.0
20260902142921 81 134 3.0 5.0 0.00 0.04 0.04 90 1017.3
20260902141920 80 180 4.0 7.0 0.00 0.04 0.04 87 1017.3
20260902140920 80 142 1.0 2.0 0.00 0.04 0.04 90 1017.3
20260902135921 79 127 3.0 4.0 0.00 0.04 0.04 92 1017.3
20260902134920 79 278 1.0 2.0 0.00 0.04 0.04 89 1016.9
20260902133921 78 151 3.0 4.0 0.00 0.04 0.04 92 1016.9
20260902132920 77 148 1.0 2.0 0.00 0.04 0.04 94 1016.9
20260902131920 77 171 3.0 5.0 0.04 0.04 0.04 94 1016.9
20260902130940 75 160 3.0 4.0 0.04 0.04 0.04 95 1016.8
20260902125921 74 0.0 0.0 0.04 0.04 0.04 98 1016.8
20260902124920 74 151 1.0 2.0 0.04 0.04 0.04 99 1016.5
20260902123921 74 130 3.0 5.0 0.04 0.04 0.04 98 1016.2
20260902122920 74 0.0 0.0 0.04 0.04 0.04 97 1016.5
20260902122000 75 0.0 0.0 0.00 0.00 0.00 93 1017.2
20260902120920 76 1 1.0 2.0 0.00 0.00 0.00 88 1017.2
20260902115920 76 166 4.0 5.0 0.00 0.00 0.00 88 1016.9
20260902114921 76 95 2.0 2.0 0.00 0.00 0.00 87 1017.0
20260902113920 75 319 5.0 6.0 0.00 0.00 0.00 88 1017.3
20260902112920 75 241 1.0 5.0 0.00 0.00 0.00 96 1016.6
20260902112001 75 163 0.0 2.0 0.00 0.00 0.00 95 1016.3
20260902110921 75 154 4.0 6.0 0.00 0.00 0.00 95 1015.3
20260902105921 75 206 3.0 5.0 0.00 0.00 0.00 95 1015.3
20260902104921 75 139 2.0 5.0 0.00 0.00 0.00 95 1015.3
20260902103920 74 214 2.0 5.0 0.00 0.00 0.00 96 1015.6
20260902102920 74 185 2.0 4.0 0.00 0.00 0.00 97 1015.3
20260902101920 74 165 1.0 2.0 0.00 0.00 0.00 97 1015.3
20260902100942 74 173 2.0 4.0 0.00 0.00 0.00 98 1015.6
20260902095920 74 172 1.0 2.0 0.00 0.00 0.00 99 1015.6
20260902094920 74 0.0 0.0 0.00 0.00 0.00 99 1015.6
20260902093921 74 0.0 0.0 0.00 0.00 0.00 99 1015.6
20260902092920 74 0.0 0.0 0.00 0.00 0.00 99 1015.6
20260902091921 74 0.0 0.0 0.00 0.00 0.00 99 1015.6
20260902090920 73 163 1.0 2.0 0.00 0.00 0.00 99 1016.0
20260902085920 73 131 0.0 2.0 0.00 0.00 0.00 99 1016.0
20260902084940 73 139 1.0 3.0 0.00 0.00 0.00 99 1016.3
20260902083920 73 134 1.0 3.0 0.00 0.00 0.00 99 1016.3
20260902082920 73 0.0 0.0 0.00 0.00 0.00 99 1016.3
20260902081920 73 0.0 0.0 0.00 0.00 0.00 98 1016.4
20260902080940 73 141 1.0 2.0 0.00 0.00 0.00 98 1016.0
20260902075920 73 0.0 0.0 0.00 0.00 0.00 98 1016.0
20260902074920 73 0.0 0.0 0.00 0.00 0.00 98 1016.4
20260902073920 73 0.0 0.0 0.00 0.00 0.00 97 1016.4
20260902072921 73 0.0 0.0 0.00 0.01 0.00 96 1016.4
20260902071940 73 156 0.0 2.0 0.00 0.01 0.00 96 1016.7
20260902070940 73 0.0 0.0 0.00 0.01 0.00 95 1016.4
20260902065920 74 180 0.0 2.0 0.00 0.01 0.00 94 1016.4
20260902064921 74 203 2.0 4.0 0.00 0.01 0.00 94 1016.7
20260902063920 73 157 2.0 2.0 0.00 0.01 0.00 95 1016.4
20260902062941 73 0.0 0.0 0.00 0.01 0.00 95 1016.7
20260902061920 73 0.0 0.0 0.00 0.01 0.00 94 1016.6
20260902060940 74 0.0 0.0 0.00 0.01 0.00 94 1016.6
20260902055920 74 144 0.0 2.0 0.00 0.01 0.00 94 1016.7
20260902054920 74 0.0 0.0 0.00 0.01 0.00 92 1016.6
20260902053940 74 0.0 0.0 0.00 0.01 0.00 93 1016.6
20260902053001 74 133 1.0 2.0 0.00 0.01 0.00 91 1016.6
20260902051940 74 144 2.0 2.0 0.00 0.01 0.00 92 1016.6
20260902050920 74 0.0 0.0 0.00 0.01 0.00 92 1016.3
20260902050001 74 0.0 0.0 0.00 0.01 0.00 92 1016.6
20260902044922 74 0.0 0.0 0.00 0.01 0.00 91 1016.3